Time,TemperatureF,DewpointF,PressureIn,WindDirection,WindDirectionDegrees,WindSpeedMPH,WindSpeedGustMPH,Humidity,HourlyPrecipIn,Conditions,Clouds,dailyrainin,SoftwareType,DateUTC
2013-02-23 00:00:00,30.3,26.3,29.99,WNW,285,1.0,5.0,85,0.00,,,0.00,VWS V14.01,2013-02-23 05:00:00,
2013-02-23 00:05:00,30.2,26.2,29.99,West,278,3.0,3.0,85,0.00,,,0.00,VWS V14.01,2013-02-23 05:05:00,
2013-02-23 00:10:00,30.0,26.0,29.99,NW,306,4.0,7.0,85,0.00,,,0.00,VWS V14.01,2013-02-23 05:10:00,
2013-02-23 00:15:00,29.9,26.0,29.99,WNW,284,2.0,4.0,85,0.00,,,0.00,VWS V14.01,2013-02-23 05:15:00,
2013-02-23 00:20:00,29.7,25.8,29.99,NW,314,4.0,6.0,85,0.00,,,0.00,VWS V14.01,2013-02-23 05:20:00,
2013-02-23 00:25:00,29.6,25.4,29.99,NW,304,0.0,9.0,84,0.00,,,0.00,VWS V14.01,2013-02-23 05:25:00,
2013-02-23 00:30:00,29.6,25.4,29.99,NW,315,3.0,6.0,84,0.00,,,0.00,VWS V14.01,2013-02-23 05:30:00,
2013-02-23 00:35:00,29.6,25.4,29.99,West,262,6.0,6.0,84,0.00,,,0.00,VWS V14.01,2013-02-23 05:35:00,
2013-02-23 00:40:00,29.6,25.4,29.99,WNW,289,0.0,6.0,84,0.00,,,0.00,VWS V14.01,2013-02-23 05:40:00,
2013-02-23 00:45:00,29.6,25.4,29.99,West,262,0.0,6.0,84,0.00,,,0.00,VWS V14.01,2013-02-23 05:45:00,
2013-02-23 00:50:00,29.6,25.4,29.99,West,269,4.0,6.0,84,0.00,,,0.00,VWS V14.01,2013-02-23 05:50:00,
2013-02-23 00:55:00,29.5,25.3,29.99,West,281,1.0,6.0,84,0.00,,,0.00,VWS V14.01,2013-02-23 05:55:00,
2013-02-23 01:00:00,29.4,25.2,29.99,WNW,284,3.0,6.0,84,0.00,,,0.00,VWS V14.01,2013-02-23 06:00:00,
2013-02-23 01:05:00,29.4,25.2,29.99,West,271,6.0,9.0,84,0.00,,,0.00,VWS V14.01,2013-02-23 06:05:00,
2013-02-23 01:10:00,29.3,25.1,29.99,West,260,2.0,3.0,84,0.00,,,0.00,VWS V14.01,2013-02-23 06:10:00,
2013-02-23 01:15:00,29.3,25.1,29.98,WNW,284,8.0,8.0,84,0.00,,,0.00,VWS V14.01,2013-02-23 06:15:00,
2013-02-23 01:20:00,29.2,24.7,29.98,WNW,293,2.0,8.0,83,0.00,,,0.00,VWS V14.01,2013-02-23 06:20:00,
2013-02-23 01:25:00,29.2,24.7,29.99,WNW,291,1.0,1.0,83,0.00,,,0.00,VWS V14.01,2013-02-23 06:25:00,
2013-02-23 01:30:00,29.2,24.4,29.99,West,259,3.0,10.0,82,0.00,,,0.00,VWS V14.01,2013-02-23 06:30:00,
2013-02-23 01:35:00,29.1,24.6,29.99,West,278,2.0,10.0,83,0.00,,,0.00,VWS V14.01,2013-02-23 06:35:00,
2013-02-23 01:40:00,29.1,24.3,29.99,West,279,1.0,10.0,82,0.00,,,0.00,VWS V14.01,2013-02-23 06:40:00,
2013-02-23 01:45:00,29.1,24.3,29.99,WSW,243,4.0,10.0,82,0.00,,,0.00,VWS V14.01,2013-02-23 06:45:00,
2013-02-23 01:50:00,29.1,24.3,29.99,SW,222,4.0,10.0,82,0.00,,,0.00,VWS V14.01,2013-02-23 06:50:00,
2013-02-23 01:55:00,29.0,24.2,29.99,West,273,6.0,10.0,82,0.00,,,0.00,VWS V14.01,2013-02-23 06:55:00,
2013-02-23 02:00:00,29.0,23.9,29.99,WSW,253,2.0,5.0,81,0.00,,,0.00,VWS V14.01,2013-02-23 07:00:00,
2013-02-23 02:05:00,29.0,24.2,29.98,West,281,0.0,6.0,82,0.00,,,0.00,VWS V14.01,2013-02-23 07:05:00,
2013-02-23 02:10:00,28.9,24.1,29.98,WSW,246,4.0,6.0,82,0.00,,,0.00,VWS V14.01,2013-02-23 07:10:00,
2013-02-23 02:15:00,28.8,24.0,29.98,West,281,2.0,6.0,82,0.00,,,0.00,VWS V14.01,2013-02-23 07:15:00,
2013-02-23 02:20:00,28.8,24.3,29.98,SSW,200,2.0,6.0,83,0.00,,,0.00,VWS V14.01,2013-02-23 07:20:00,
2013-02-23 02:25:00,28.7,24.2,29.98,WSW,242,5.0,6.0,83,0.00,,,0.00,VWS V14.01,2013-02-23 07:25:00,
2013-02-23 02:30:00,28.6,23.8,29.98,West,276,2.0,5.0,82,0.00,,,0.00,VWS V14.01,2013-02-23 07:30:00,
2013-02-23 02:35:00,28.5,23.7,29.98,WNW,284,4.0,7.0,82,0.00,,,0.00,VWS V14.01,2013-02-23 07:35:00,
2013-02-23 02:40:00,28.4,23.6,29.98,NNW,337,3.0,7.0,82,0.00,,,0.00,VWS V14.01,2013-02-23 07:40:00,
2013-02-23 02:45:00,28.3,23.5,29.98,SW,219,3.0,8.0,82,0.00,,,0.00,VWS V14.01,2013-02-23 07:45:00,
2013-02-23 02:50:00,28.2,23.4,29.98,WSW,254,3.0,8.0,82,0.00,,,0.00,VWS V14.01,2013-02-23 07:50:00,
2013-02-23 02:55:00,28.1,23.6,29.98,WSW,243,2.0,8.0,83,0.00,,,0.00,VWS V14.01,2013-02-23 07:55:00,
2013-02-23 03:00:00,28.1,23.3,29.98,WSW,255,1.0,7.0,82,0.00,,,0.00,VWS V14.01,2013-02-23 08:00:00,
2013-02-23 03:05:00,28.0,23.2,29.98,WSW,257,5.0,7.0,82,0.00,,,0.00,VWS V14.01,2013-02-23 08:05:00,
2013-02-23 03:10:00,27.9,23.1,29.98,NW,307,2.0,7.0,82,0.00,,,0.00,VWS V14.01,2013-02-23 08:10:00,
2013-02-23 03:15:00,27.8,23.3,29.98,West,271,2.0,7.0,83,0.00,,,0.00,VWS V14.01,2013-02-23 08:15:00,
2013-02-23 03:20:00,27.8,23.3,29.98,SW,226,1.0,7.0,83,0.00,,,0.00,VWS V14.01,2013-02-23 08:20:00,
2013-02-23 03:25:00,27.7,23.2,29.98,West,281,1.0,7.0,83,0.00,,,0.00,VWS V14.01,2013-02-23 08:25:00,
2013-02-23 03:30:00,27.5,23.3,29.98,SW,228,3.0,5.0,84,0.00,,,0.00,VWS V14.01,2013-02-23 08:30:00,
2013-02-23 03:35:00,27.5,23.3,29.98,SW,232,1.0,6.0,84,0.00,,,0.00,VWS V14.01,2013-02-23 08:35:00,
2013-02-23 03:40:00,27.4,23.2,29.98,SW,217,1.0,6.0,84,0.00,,,0.00,VWS V14.01,2013-02-23 08:40:00,
2013-02-23 03:45:00,27.3,23.1,29.97,SW,228,2.0,9.0,84,0.00,,,0.00,VWS V14.01,2013-02-23 08:45:00,
2013-02-23 03:50:00,27.1,22.9,29.97,West,274,1.0,9.0,84,0.00,,,0.00,VWS V14.01,2013-02-23 08:50:00,
2013-02-23 03:55:00,27.0,23.1,29.97,WSW,243,4.0,9.0,85,0.00,,,0.00,VWS V14.01,2013-02-23 08:55:00,
2013-02-23 04:00:00,26.9,23.0,29.97,West,275,1.0,2.0,85,0.00,,,0.00,VWS V14.01,2013-02-23 09:00:00,
2013-02-23 04:05:00,26.8,22.9,29.97,SSW,204,0.0,5.0,85,0.00,,,0.00,VWS V14.01,2013-02-23 09:05:00,
2013-02-23 04:10:00,26.8,22.9,29.97,WSW,245,0.0,7.0,85,0.00,,,0.00,VWS V14.01,2013-02-23 09:10:00,
2013-02-23 04:15:00,26.7,22.8,29.97,SW,228,2.0,7.0,85,0.00,,,0.00,VWS V14.01,2013-02-23 09:15:00,
2013-02-23 04:20:00,26.7,23.1,29.97,WSW,243,3.0,7.0,86,0.00,,,0.00,VWS V14.01,2013-02-23 09:20:00,
2013-02-23 04:25:00,26.6,23.0,29.97,WSW,256,1.0,7.0,86,0.00,,,0.00,VWS V14.01,2013-02-23 09:25:00,
2013-02-23 04:30:00,26.5,22.9,29.97,WSW,254,2.0,6.0,86,0.00,,,0.00,VWS V14.01,2013-02-23 09:30:00,
2013-02-23 04:35:00,26.4,22.8,29.97,West,276,1.0,6.0,86,0.00,,,0.00,VWS V14.01,2013-02-23 09:35:00,
2013-02-23 04:40:00,26.3,22.7,29.97,West,273,2.0,6.0,86,0.00,,,0.00,VWS V14.01,2013-02-23 09:40:00,
2013-02-23 04:45:00,26.2,22.9,29.97,West,277,1.0,6.0,87,0.00,,,0.00,VWS V14.01,2013-02-23 09:45:00,
2013-02-23 04:50:00,26.0,22.7,29.97,NW,306,5.0,6.0,87,0.00,,,0.00,VWS V14.01,2013-02-23 09:50:00,
2013-02-23 04:55:00,25.9,22.6,29.97,SW,235,1.0,6.0,87,0.00,,,0.00,VWS V14.01,2013-02-23 09:55:00,
2013-02-23 05:00:00,25.7,22.4,29.97,WSW,247,1.0,3.0,87,0.00,,,0.00,VWS V14.01,2013-02-23 10:00:00,
2013-02-23 05:05:00,25.6,22.3,29.98,WSW,256,0.0,4.0,87,0.00,,,0.00,VWS V14.01,2013-02-23 10:05:00,
2013-02-23 05:10:00,25.5,22.5,29.98,SW,224,0.0,4.0,88,0.00,,,0.00,VWS V14.01,2013-02-23 10:10:00,
2013-02-23 05:15:00,25.4,22.4,29.98,WSW,243,1.0,4.0,88,0.00,,,0.00,VWS V14.01,2013-02-23 10:15:00,
2013-02-23 05:20:00,25.3,22.2,29.98,West,266,1.0,4.0,88,0.00,,,0.00,VWS V14.01,2013-02-23 10:20:00,
2013-02-23 05:25:00,25.1,22.0,29.98,SW,214,1.0,4.0,88,0.00,,,0.00,VWS V14.01,2013-02-23 10:25:00,
2013-02-23 05:30:00,25.0,22.2,29.99,SSW,207,1.0,4.0,89,0.00,,,0.00,VWS V14.01,2013-02-23 10:30:00,
2013-02-23 05:35:00,25.0,22.2,29.99,SSW,212,0.0,4.0,89,0.00,,,0.00,VWS V14.01,2013-02-23 10:35:00,
2013-02-23 05:40:00,24.8,22.0,29.98,SSW,195,0.0,4.0,89,0.00,,,0.00,VWS V14.01,2013-02-23 10:40:00,
2013-02-23 05:45:00,24.7,21.9,29.98,SW,227,0.0,4.0,89,0.00,,,0.00,VWS V14.01,2013-02-23 10:45:00,
2013-02-23 05:50:00,24.6,21.8,29.98,WSW,239,2.0,4.0,89,0.00,,,0.00,VWS V14.01,2013-02-23 10:50:00,
2013-02-23 05:55:00,24.6,21.8,29.98,WSW,241,1.0,4.0,89,0.00,,,0.00,VWS V14.01,2013-02-23 10:55:00,
2013-02-23 06:00:00,24.4,21.6,29.99,SSW,211,0.0,2.0,89,0.00,,,0.00,VWS V14.01,2013-02-23 11:00:00,
2013-02-23 06:05:00,24.3,21.5,29.99,SW,224,0.0,3.0,89,0.00,,,0.00,VWS V14.01,2013-02-23 11:05:00,
2013-02-23 06:10:00,24.2,21.7,29.99,West,260,0.0,3.0,90,0.00,,,0.00,VWS V14.01,2013-02-23 11:10:00,
2013-02-23 06:15:00,24.0,21.5,29.99,WSW,248,0.0,3.0,90,0.00,,,0.00,VWS V14.01,2013-02-23 11:15:00,
2013-02-23 06:20:00,23.9,21.4,29.99,SW,222,0.0,0.0,90,0.00,,,0.00,VWS V14.01,2013-02-23 11:20:00,
2013-02-23 06:25:00,23.8,21.3,29.98,SSW,211,0.0,0.0,90,0.00,,,0.00,VWS V14.01,2013-02-23 11:25:00,
2013-02-23 06:30:00,23.7,21.2,29.99,SW,221,0.0,0.0,90,0.00,,,0.00,VWS V14.01,2013-02-23 11:30:00,
2013-02-23 06:35:00,23.6,21.1,29.99,SW,235,0.0,4.0,90,0.00,,,0.00,VWS V14.01,2013-02-23 11:35:00,
2013-02-23 06:40:00,23.6,21.4,29.99,WSW,240,0.0,4.0,91,0.00,,,0.00,VWS V14.01,2013-02-23 11:40:00,
2013-02-23 06:45:00,23.5,21.3,29.99,West,277,0.0,4.0,91,0.00,,,0.00,VWS V14.01,2013-02-23 11:45:00,
2013-02-23 06:50:00,23.4,21.2,29.99,SW,225,0.0,4.0,91,0.00,,,0.00,VWS V14.01,2013-02-23 11:50:00,
2013-02-23 06:55:00,23.3,21.1,29.99,WSW,240,0.0,4.0,91,0.00,,,0.00,VWS V14.01,2013-02-23 11:55:00,
2013-02-23 07:00:00,23.2,21.0,29.99,SW,236,0.0,0.0,91,0.00,,,0.00,VWS V14.01,2013-02-23 12:00:00,
2013-02-23 07:05:00,23.2,21.0,29.99,WSW,240,1.0,3.0,91,0.00,,,0.00,VWS V14.01,2013-02-23 12:05:00,
2013-02-23 07:10:00,23.2,21.0,29.99,SW,228,1.0,3.0,91,0.00,,,0.00,VWS V14.01,2013-02-23 12:10:00,
2013-02-23 07:15:00,23.1,20.9,29.99,SW,235,0.0,3.0,91,0.00,,,0.00,VWS V14.01,2013-02-23 12:15:00,
2013-02-23 07:20:00,23.1,20.9,29.99,SW,214,0.0,3.0,91,0.00,,,0.00,VWS V14.01,2013-02-23 12:20:00,
2013-02-23 07:25:00,23.1,20.9,29.99,West,267,1.0,3.0,91,0.00,,,0.00,VWS V14.01,2013-02-23 12:25:00,
2013-02-23 07:30:00,23.0,20.8,29.99,WSW,245,0.0,1.0,91,0.00,,,0.00,VWS V14.01,2013-02-23 12:30:00,
2013-02-23 07:35:00,23.0,21.0,29.99,South,176,1.0,3.0,92,0.00,,,0.00,VWS V14.01,2013-02-23 12:35:00,
2013-02-23 07:40:00,23.1,21.1,30.00,WSW,245,0.0,3.0,92,0.00,,,0.00,VWS V14.01,2013-02-23 12:40:00,
2013-02-23 07:45:00,23.2,21.2,30.00,WSW,251,0.0,3.0,92,0.00,,,0.00,VWS V14.01,2013-02-23 12:45:00,
2013-02-23 07:50:00,23.3,21.3,30.00,SW,229,1.0,3.0,92,0.00,,,0.00,VWS V14.01,2013-02-23 12:50:00,
2013-02-23 07:55:00,23.5,21.5,30.00,WSW,256,0.0,3.0,92,0.00,,,0.00,VWS V14.01,2013-02-23 12:55:00,
2013-02-23 08:00:00,23.6,21.6,30.00,WSW,251,0.0,4.0,92,0.00,,,0.00,VWS V14.01,2013-02-23 13:00:00,
2013-02-23 08:05:00,23.8,21.6,30.00,SW,221,0.0,4.0,91,0.00,,,0.00,VWS V14.01,2013-02-23 13:05:00,
2013-02-23 08:10:00,24.0,21.8,30.00,SSW,204,1.0,4.0,91,0.00,,,0.00,VWS V14.01,2013-02-23 13:10:00,
2013-02-23 08:15:00,24.2,22.0,30.00,WSW,238,0.0,4.0,91,0.00,,,0.00,VWS V14.01,2013-02-23 13:15:00,
2013-02-23 08:20:00,24.4,22.2,30.00,WSW,250,0.0,4.0,91,0.00,,,0.00,VWS V14.01,2013-02-23 13:20:00,
2013-02-23 08:25:00,24.6,22.1,30.00,SW,222,1.0,4.0,90,0.00,,,0.00,VWS V14.01,2013-02-23 13:25:00,
2013-02-23 08:30:00,24.8,22.3,30.00,SW,232,0.0,3.0,90,0.00,,,0.00,VWS V14.01,2013-02-23 13:30:00,
2013-02-23 08:35:00,25.0,22.5,30.00,WSW,253,1.0,3.0,90,0.00,,,0.00,VWS V14.01,2013-02-23 13:35:00,
2013-02-23 08:40:00,25.1,22.6,29.99,SW,225,0.0,3.0,90,0.00,,,0.00,VWS V14.01,2013-02-23 13:40:00,
2013-02-23 08:45:00,25.5,23.0,30.00,WSW,240,0.0,4.0,90,0.00,,,0.00,VWS V14.01,2013-02-23 13:45:00,
2013-02-23 08:50:00,25.9,23.1,30.00,WSW,240,1.0,5.0,89,0.00,,,0.00,VWS V14.01,2013-02-23 13:50:00,
2013-02-23 08:55:00,26.2,23.1,29.99,WSW,243,1.0,5.0,88,0.00,,,0.00,VWS V14.01,2013-02-23 13:55:00,
2013-02-23 09:00:00,26.5,23.4,30.00,South,184,1.0,3.0,88,0.00,,,0.00,VWS V14.01,2013-02-23 14:00:00,
2013-02-23 09:05:00,26.7,23.6,30.00,West,276,1.0,4.0,88,0.00,,,0.00,VWS V14.01,2013-02-23 14:05:00,
2013-02-23 09:10:00,27.0,23.6,30.00,WSW,253,2.0,4.0,87,0.00,,,0.00,VWS V14.01,2013-02-23 14:10:00,
2013-02-23 09:15:00,27.3,23.7,30.00,WSW,252,1.0,4.0,86,0.00,,,0.00,VWS V14.01,2013-02-23 14:15:00,
2013-02-23 09:20:00,27.5,23.9,29.99,West,259,3.0,5.0,86,0.00,,,0.00,VWS V14.01,2013-02-23 14:20:00,
2013-02-23 09:25:00,27.7,24.1,29.99,South,186,3.0,7.0,86,0.00,,,0.00,VWS V14.01,2013-02-23 14:25:00,
2013-02-23 09:30:00,27.6,23.7,29.99,WSW,246,0.0,5.0,85,0.00,,,0.00,VWS V14.01,2013-02-23 14:30:00,
2013-02-23 09:35:00,27.7,24.1,29.99,West,259,2.0,6.0,86,0.00,,,0.00,VWS V14.01,2013-02-23 14:35:00,
2013-02-23 09:40:00,27.7,23.8,29.99,SW,233,3.0,6.0,85,0.00,,,0.00,VWS V14.01,2013-02-23 14:40:00,
2013-02-23 09:45:00,28.3,24.4,29.99,WSW,241,5.0,6.0,85,0.00,,,0.00,VWS V14.01,2013-02-23 14:45:00,
2013-02-23 09:50:00,28.7,24.5,29.99,SW,231,1.0,6.0,84,0.00,,,0.00,VWS V14.01,2013-02-23 14:50:00,
2013-02-23 09:55:00,28.8,24.0,29.99,NW,314,3.0,6.0,82,0.00,,,0.00,VWS V14.01,2013-02-23 14:55:00,
2013-02-23 10:00:00,29.0,24.5,29.99,West,274,2.0,5.0,83,0.00,,,0.00,VWS V14.01,2013-02-23 15:00:00,
2013-02-23 10:05:00,28.6,23.5,29.99,WSW,257,0.0,5.0,81,0.00,,,0.00,VWS V14.01,2013-02-23 15:05:00,
2013-02-23 10:10:00,28.5,23.4,29.99,WSW,248,1.0,6.0,81,0.00,,,0.00,VWS V14.01,2013-02-23 15:10:00,
2013-02-23 10:15:00,29.0,23.9,29.99,West,262,1.0,6.0,81,0.00,,,0.00,VWS V14.01,2013-02-23 15:15:00,
2013-02-23 10:20:00,29.0,23.6,29.99,NNW,340,4.0,6.0,80,0.00,,,0.00,VWS V14.01,2013-02-23 15:20:00,
2013-02-23 10:25:00,28.7,23.0,29.98,SW,231,1.0,7.0,79,0.00,,,0.00,VWS V14.01,2013-02-23 15:25:00,
2013-02-23 10:30:00,28.5,22.8,29.99,West,263,3.0,7.0,79,0.00,,,0.00,VWS V14.01,2013-02-23 15:30:00,
2013-02-23 10:35:00,28.4,22.7,29.99,SW,228,5.0,8.0,79,0.00,,,0.00,VWS V14.01,2013-02-23 15:35:00,
2013-02-23 10:40:00,28.5,23.1,29.99,WNW,289,2.0,4.0,80,0.00,,,0.00,VWS V14.01,2013-02-23 15:40:00,
2013-02-23 10:45:00,28.9,23.2,29.99,WNW,290,4.0,6.0,79,0.00,,,0.00,VWS V14.01,2013-02-23 15:45:00,
2013-02-23 10:50:00,29.1,23.4,29.99,WNW,287,2.0,6.0,79,0.00,,,0.00,VWS V14.01,2013-02-23 15:50:00,
2013-02-23 10:55:00,29.3,23.6,30.00,SW,222,4.0,6.0,79,0.00,,,0.00,VWS V14.01,2013-02-23 15:55:00,
2013-02-23 11:00:00,29.0,23.0,30.00,NW,311,3.0,5.0,78,0.00,,,0.00,VWS V14.01,2013-02-23 16:00:00,
2013-02-23 11:05:00,28.9,22.9,30.00,SW,215,8.0,8.0,78,0.00,,,0.00,VWS V14.01,2013-02-23 16:05:00,
2013-02-23 11:10:00,28.6,22.3,29.99,WNW,294,5.0,8.0,77,0.00,,,0.00,VWS V14.01,2013-02-23 16:10:00,
2013-02-23 11:15:00,28.8,22.8,29.99,WSW,249,3.0,8.0,78,0.00,,,0.00,VWS V14.01,2013-02-23 16:15:00,
2013-02-23 11:20:00,29.2,23.2,29.99,SW,219,3.0,8.0,78,0.00,,,0.00,VWS V14.01,2013-02-23 16:20:00,
2013-02-23 11:25:00,29.5,23.2,29.99,WSW,255,4.0,8.0,77,0.00,,,0.00,VWS V14.01,2013-02-23 16:25:00,
2013-02-23 11:30:00,29.3,22.7,29.99,WSW,254,6.0,7.0,76,0.00,,,0.00,VWS V14.01,2013-02-23 16:30:00,
2013-02-23 11:35:00,29.3,23.0,29.99,WSW,240,3.0,8.0,77,0.00,,,0.00,VWS V14.01,2013-02-23 16:35:00,
2013-02-23 11:40:00,29.2,22.6,29.99,NW,312,2.0,8.0,76,0.00,,,0.00,VWS V14.01,2013-02-23 16:40:00,
2013-02-23 11:45:00,29.4,22.8,29.99,WNW,291,3.0,8.0,76,0.00,,,0.00,VWS V14.01,2013-02-23 16:45:00,
2013-02-23 11:50:00,29.1,22.5,29.99,WNW,289,1.0,8.0,76,0.00,,,0.00,VWS V14.01,2013-02-23 16:50:00,
2013-02-23 11:55:00,29.0,22.7,29.99,SW,222,3.0,8.0,77,0.00,,,0.00,VWS V14.01,2013-02-23 16:55:00,
2013-02-23 12:00:00,29.0,22.7,29.99,NW,307,2.0,4.0,77,0.00,,,0.00,VWS V14.01,2013-02-23 17:00:00,
2013-02-23 12:05:00,29.5,23.2,29.99,West,278,2.0,5.0,77,0.00,,,0.00,VWS V14.01,2013-02-23 17:05:00,
2013-02-23 12:10:00,29.7,22.4,29.99,WSW,257,7.0,7.0,74,0.00,,,0.00,VWS V14.01,2013-02-23 17:10:00,
2013-02-23 12:15:00,29.6,22.0,29.99,WNW,283,3.0,8.0,73,0.00,,,0.00,VWS V14.01,2013-02-23 17:15:00,
2013-02-23 12:20:00,29.4,21.8,29.99,West,274,3.0,8.0,73,0.00,,,0.00,VWS V14.01,2013-02-23 17:20:00,
2013-02-23 12:25:00,29.4,22.1,29.99,West,270,0.0,8.0,74,0.00,,,0.00,VWS V14.01,2013-02-23 17:25:00,
2013-02-23 12:30:00,29.8,22.5,29.99,West,267,3.0,4.0,74,0.00,,,0.00,VWS V14.01,2013-02-23 17:30:00,
2013-02-23 12:35:00,29.6,23.3,29.99,NW,316,3.0,6.0,77,0.00,,,0.00,VWS V14.01,2013-02-23 17:35:00,
2013-02-23 12:40:00,29.2,23.2,29.99,WNW,288,1.0,3.0,78,0.00,,,0.00,VWS V14.01,2013-02-23 17:40:00,
2013-02-23 12:45:00,28.8,23.0,29.99,NW,310,2.0,9.0,78,0.00,,,0.00,weatherlink.com 1.10,2013-02-23 17:45:00,
2013-02-23 12:50:00,28.6,22.9,29.98,WNW,287,3.0,6.0,79,0.00,,,0.00,VWS V14.01,2013-02-23 17:50:00,
2013-02-23 12:55:00,28.7,22.7,29.98,WNW,288,4.0,7.0,78,0.00,,,0.00,VWS V14.01,2013-02-23 17:55:00,
2013-02-23 13:00:00,28.8,22.8,29.98,NW,305,1.0,1.0,78,0.00,,,0.00,VWS V14.01,2013-02-23 18:00:00,
2013-02-23 13:05:00,29.0,23.0,29.97,WNW,290,2.0,6.0,78,0.00,,,0.00,VWS V14.01,2013-02-23 18:05:00,
2013-02-23 13:10:00,29.1,23.1,29.98,SW,236,1.0,6.0,78,0.00,,,0.00,VWS V14.01,2013-02-23 18:10:00,
2013-02-23 13:15:00,29.4,23.1,29.97,ESE,120,0.0,6.0,77,0.00,,,0.00,VWS V14.01,2013-02-23 18:15:00,
2013-02-23 13:20:00,29.7,23.1,29.97,SW,235,4.0,8.0,76,0.00,,,0.00,VWS V14.01,2013-02-23 18:20:00,
2013-02-23 13:25:00,29.9,22.6,29.97,SW,219,3.0,8.0,74,0.00,,,0.00,VWS V14.01,2013-02-23 18:25:00,
2013-02-23 13:30:00,30.1,23.1,29.97,NNW,329,6.0,7.0,75,0.00,,,0.00,VWS V14.01,2013-02-23 18:30:00,
2013-02-23 13:35:00,30.3,23.0,29.97,West,269,2.0,7.0,74,0.00,,,0.00,VWS V14.01,2013-02-23 18:35:00,
2013-02-23 13:40:00,30.8,23.8,29.97,WSW,257,1.0,7.0,75,0.00,,,0.00,VWS V14.01,2013-02-23 18:40:00,
2013-02-23 13:45:00,31.2,23.6,29.97,West,260,4.0,7.0,73,0.00,,,0.00,VWS V14.01,2013-02-23 18:45:00,
2013-02-23 13:50:00,31.5,23.9,29.97,WSW,248,3.0,7.0,73,0.00,,,0.00,VWS V14.01,2013-02-23 18:50:00,
2013-02-23 13:55:00,31.7,23.7,29.96,WSW,243,3.0,9.0,72,0.00,,,0.00,VWS V14.01,2013-02-23 18:55:00,
2013-02-23 14:00:00,31.5,23.5,29.95,West,262,1.0,7.0,72,0.00,,,0.00,VWS V14.01,2013-02-23 19:00:00,
2013-02-23 14:05:00,31.6,23.3,29.95,WNW,284,6.0,7.0,71,0.00,,,0.00,VWS V14.01,2013-02-23 19:05:00,
2013-02-23 14:10:00,31.4,23.1,29.95,SSW,199,4.0,9.0,71,0.00,,,0.00,VWS V14.01,2013-02-23 19:10:00,
2013-02-23 14:15:00,31.0,23.0,29.95,NW,307,4.0,9.0,72,0.00,,,0.00,VWS V14.01,2013-02-23 19:15:00,
2013-02-23 14:20:00,30.8,22.9,29.95,West,266,4.0,9.0,72,0.00,,,0.00,VWS V14.01,2013-02-23 19:20:00,
2013-02-23 14:25:00,30.9,23.3,29.95,West,259,3.0,9.0,73,0.00,,,0.00,VWS V14.01,2013-02-23 19:25:00,
2013-02-23 14:30:00,30.8,23.2,29.95,WSW,257,3.0,6.0,73,0.00,,,0.00,VWS V14.01,2013-02-23 19:30:00,
2013-02-23 14:35:00,30.9,23.3,29.96,SSW,211,2.0,10.0,73,0.00,,,0.00,VWS V14.01,2013-02-23 19:35:00,
2013-02-23 14:40:00,30.9,23.0,29.96,WNW,291,3.0,10.0,72,0.00,,,0.00,VWS V14.01,2013-02-23 19:40:00,
2013-02-23 14:45:00,30.8,23.2,29.97,WSW,240,7.0,10.0,73,0.00,,,0.00,VWS V14.01,2013-02-23 19:45:00,
2013-02-23 14:50:00,30.6,23.0,29.95,West,280,3.0,10.0,73,0.00,,,0.00,VWS V14.01,2013-02-23 19:50:00,
2013-02-23 14:55:00,30.6,23.3,29.95,SW,236,5.0,10.0,74,0.00,,,0.00,VWS V14.01,2013-02-23 19:55:00,
2013-02-23 15:00:00,30.8,23.8,29.94,West,270,6.0,7.0,75,0.00,,,0.00,VWS V14.01,2013-02-23 20:00:00,
2013-02-23 15:05:00,31.4,24.1,29.95,WNW,288,3.0,7.0,74,0.00,,,0.00,VWS V14.01,2013-02-23 20:05:00,
2013-02-23 15:10:00,31.0,23.0,29.95,WSW,239,3.0,7.0,72,0.00,,,0.00,VWS V14.01,2013-02-23 20:10:00,
2013-02-23 15:15:00,30.9,23.3,29.95,WNW,294,3.0,9.0,73,0.00,,,0.00,VWS V14.01,2013-02-23 20:15:00,
2013-02-23 15:20:00,30.7,23.0,29.95,West,278,6.0,9.0,73,0.00,,,0.00,weatherlink.com 1.10,2013-02-23 20:20:00,
2013-02-23 15:25:00,30.8,23.5,29.95,West,280,9.0,10.0,74,0.00,,,0.00,VWS V14.01,2013-02-23 20:25:00,
2013-02-23 15:30:00,30.7,23.4,29.95,SW,233,2.0,6.0,74,0.00,,,0.00,VWS V14.01,2013-02-23 20:30:00,
2013-02-23 15:35:00,30.8,23.2,29.95,SW,222,3.0,9.0,73,0.00,,,0.00,VWS V14.01,2013-02-23 20:35:00,
2013-02-23 15:40:00,30.6,23.3,29.96,WSW,253,1.0,10.0,74,0.00,,,0.00,VWS V14.01,2013-02-23 20:40:00,
2013-02-23 15:45:00,30.7,23.4,29.96,West,259,3.0,10.0,74,0.00,,,0.00,VWS V14.01,2013-02-23 20:45:00,
2013-02-23 15:50:00,30.8,23.8,29.95,SW,215,2.0,10.0,75,0.00,,,0.00,VWS V14.01,2013-02-23 20:50:00,
2013-02-23 15:55:00,30.5,23.2,29.95,NW,316,3.0,10.0,74,0.00,,,0.00,VWS V14.01,2013-02-23 20:55:00,
2013-02-23 16:00:00,30.4,23.1,29.95,West,262,2.0,6.0,74,0.00,,,0.00,VWS V14.01,2013-02-23 21:00:00,
2013-02-23 16:05:00,30.4,23.1,29.95,WSW,246,4.0,7.0,74,0.00,,,0.00,VWS V14.01,2013-02-23 21:05:00,
2013-02-23 16:11:00,30.4,23.4,29.95,West,278,2.0,2.0,75,0.00,,,0.00,VWS V14.01,2013-02-23 21:11:00,
2013-02-23 16:16:00,30.4,23.4,29.95,NW,304,2.0,8.0,75,0.00,,,0.00,VWS V14.01,2013-02-23 21:16:00,
2013-02-23 16:21:00,30.3,23.3,29.95,WNW,297,3.0,8.0,75,0.00,,,0.00,VWS V14.01,2013-02-23 21:21:00,
2013-02-23 16:26:00,30.3,23.7,29.96,WSW,238,2.0,8.0,76,0.00,,,0.00,VWS V14.01,2013-02-23 21:26:00,
2013-02-23 16:30:00,30.4,23.4,29.96,West,267,1.0,8.0,75,0.00,,,0.00,VWS V14.01,2013-02-23 21:30:00,
2013-02-23 16:31:00,30.4,23.8,29.95,West,264,2.0,5.0,76,0.00,,,0.00,VWS V14.01,2013-02-23 21:31:00,
2013-02-23 16:36:00,30.4,23.4,29.95,West,278,4.0,7.0,75,0.00,,,0.00,VWS V14.01,2013-02-23 21:36:00,
2013-02-23 16:41:00,30.4,24.1,29.95,WNW,287,2.0,7.0,77,0.00,,,0.00,VWS V14.01,2013-02-23 21:41:00,
2013-02-23 16:46:00,30.2,23.6,29.96,West,278,2.0,9.0,76,0.00,,,0.00,VWS V14.01,2013-02-23 21:46:00,
2013-02-23 16:51:00,30.2,23.6,29.95,WNW,284,1.0,1.0,76,0.00,,,0.00,VWS V14.01,2013-02-23 21:51:00,
2013-02-23 16:56:00,30.1,23.5,29.95,WSW,247,4.0,6.0,76,0.00,,,0.00,VWS V14.01,2013-02-23 21:56:00,
2013-02-23 17:00:00,30.1,23.5,29.96,NW,312,4.0,6.0,76,0.00,,,0.00,VWS V14.01,2013-02-23 22:00:00,
2013-02-23 17:01:00,30.1,23.5,29.96,NNW,336,4.0,5.0,76,0.00,,,0.00,VWS V14.01,2013-02-23 22:01:00,
2013-02-23 17:06:00,30.1,23.1,29.96,SW,231,5.0,10.0,75,0.00,,,0.00,VWS V14.01,2013-02-23 22:06:00,
2013-02-23 17:11:00,30.0,23.4,29.96,NW,312,1.0,10.0,76,0.00,,,0.00,VWS V14.01,2013-02-23 22:11:00,
2013-02-23 17:16:00,29.9,23.3,29.96,West,262,2.0,10.0,76,0.00,,,0.00,VWS V14.01,2013-02-23 22:16:00,
2013-02-23 17:21:00,29.9,23.3,29.96,West,270,4.0,10.0,76,0.00,,,0.00,VWS V14.01,2013-02-23 22:21:00,
2013-02-23 17:26:00,29.9,23.3,29.96,West,277,5.0,10.0,76,0.00,,,0.00,VWS V14.01,2013-02-23 22:26:00,
2013-02-23 17:30:00,29.8,23.2,29.96,West,270,3.0,10.0,76,0.00,,,0.00,VWS V14.01,2013-02-23 22:30:00,
2013-02-23 17:31:00,29.7,23.1,29.96,SSW,204,1.0,5.0,76,0.00,,,0.00,VWS V14.01,2013-02-23 22:31:00,
2013-02-23 17:36:00,29.6,23.0,29.96,West,273,1.0,5.0,76,0.00,,,0.00,VWS V14.01,2013-02-23 22:36:00,
2013-02-23 17:41:00,29.6,23.3,29.96,NW,318,6.0,6.0,77,0.00,,,0.00,VWS V14.01,2013-02-23 22:41:00,
2013-02-23 17:46:00,29.6,23.0,29.96,SW,221,4.0,7.0,76,0.00,,,0.00,VWS V14.01,2013-02-23 22:46:00,
2013-02-23 17:51:00,29.6,23.3,29.96,West,266,5.0,7.0,77,0.00,,,0.00,VWS V14.01,2013-02-23 22:51:00,
2013-02-23 17:56:00,29.6,23.3,29.96,NNW,330,2.0,7.0,77,0.00,,,0.00,VWS V14.01,2013-02-23 22:56:00,
2013-02-23 18:00:00,29.6,23.3,29.96,WNW,298,4.0,7.0,77,0.00,,,0.00,VWS V14.01,2013-02-23 23:00:00,
2013-02-23 18:01:00,29.5,23.2,29.96,West,263,2.0,7.0,77,0.00,,,0.00,VWS V14.01,2013-02-23 23:01:00,
2013-02-23 18:06:00,29.4,23.4,29.96,WNW,300,1.0,7.0,78,0.00,,,0.00,VWS V14.01,2013-02-23 23:06:00,
2013-02-23 18:11:00,29.3,23.6,29.96,WNW,290,2.0,8.0,79,0.00,,,0.00,VWS V14.01,2013-02-23 23:11:00,
2013-02-23 18:16:00,29.1,23.7,29.97,WNW,283,3.0,8.0,80,0.00,,,0.00,VWS V14.01,2013-02-23 23:16:00,
2013-02-23 18:21:00,28.9,23.5,29.97,WNW,294,3.0,8.0,80,0.00,,,0.00,VWS V14.01,2013-02-23 23:21:00,
2013-02-23 18:26:00,28.6,23.2,29.97,NW,309,3.0,8.0,80,0.00,,,0.00,VWS V14.01,2013-02-23 23:26:00,
2013-02-23 18:30:00,28.6,23.2,29.97,WNW,288,2.0,8.0,80,0.00,,,0.00,VWS V14.01,2013-02-23 23:30:00,
2013-02-23 18:31:00,28.5,23.4,29.97,NW,316,4.0,4.0,81,0.00,,,0.00,VWS V14.01,2013-02-23 23:31:00,
2013-02-23 18:36:00,28.4,23.3,29.97,NNW,340,2.0,4.0,81,0.00,,,0.00,VWS V14.01,2013-02-23 23:36:00,
2013-02-23 18:41:00,28.3,23.2,29.97,WNW,301,4.0,5.0,81,0.00,,,0.00,VWS V14.01,2013-02-23 23:41:00,
2013-02-23 18:46:00,28.2,23.1,29.97,WNW,284,4.0,7.0,81,0.00,,,0.00,VWS V14.01,2013-02-23 23:46:00,
2013-02-23 18:51:00,28.1,23.0,29.97,NNW,329,1.0,7.0,81,0.00,,,0.00,VWS V14.01,2013-02-23 23:51:00,
2013-02-23 18:56:00,28.1,23.0,29.98,WNW,297,3.0,7.0,81,0.00,,,0.00,VWS V14.01,2013-02-23 23:56:00,
2013-02-23 19:00:00,28.1,23.0,29.98,NW,312,4.0,7.0,81,0.00,,,0.00,VWS V14.01,2013-02-24 00:00:00,
2013-02-23 19:01:00,28.0,22.9,29.98,NNW,329,3.0,6.0,81,0.00,,,0.00,VWS V14.01,2013-02-24 00:01:00,
2013-02-23 19:06:00,27.9,22.8,29.98,NW,305,3.0,6.0,81,0.00,,,0.00,VWS V14.01,2013-02-24 00:06:00,
2013-02-23 19:11:00,27.9,22.8,29.98,NW,314,4.0,8.0,81,0.00,,,0.00,VWS V14.01,2013-02-24 00:11:00,
2013-02-23 19:16:00,27.8,22.7,29.98,West,271,1.0,8.0,81,0.00,,,0.00,VWS V14.01,2013-02-24 00:16:00,
2013-02-23 19:21:00,27.7,22.6,29.98,WNW,294,3.0,8.0,81,0.00,,,0.00,VWS V14.01,2013-02-24 00:21:00,
2013-02-23 19:26:00,27.7,22.6,29.98,NW,320,3.0,8.0,81,0.00,,,0.00,VWS V14.01,2013-02-24 00:26:00,
2013-02-23 19:30:00,27.7,22.6,29.98,West,276,2.0,8.0,81,0.00,,,0.00,VWS V14.01,2013-02-24 00:30:00,
2013-02-23 19:31:00,27.7,22.6,29.99,West,281,2.0,9.0,81,0.00,,,0.00,VWS V14.01,2013-02-24 00:31:00,
2013-02-23 19:36:00,27.6,22.5,29.99,NW,306,2.0,9.0,81,0.00,,,0.00,VWS V14.01,2013-02-24 00:36:00,
2013-02-23 19:41:00,27.5,22.5,29.99,WNW,285,2.0,9.0,81,0.00,,,0.00,VWS V14.01,2013-02-24 00:41:00,
2013-02-23 19:46:00,27.5,22.5,29.99,NW,307,5.0,9.0,81,0.00,,,0.00,VWS V14.01,2013-02-24 00:46:00,
2013-02-23 19:51:00,27.5,22.7,29.99,NW,309,0.0,9.0,82,0.00,,,0.00,VWS V14.01,2013-02-24 00:51:00,
2013-02-23 19:56:00,27.5,22.5,29.99,WNW,291,5.0,9.0,81,0.00,,,0.00,VWS V14.01,2013-02-24 00:56:00,
2013-02-23 20:00:00,27.5,22.5,29.99,West,270,3.0,9.0,81,0.00,,,0.00,VWS V14.01,2013-02-24 01:00:00,
2013-02-23 20:01:00,27.4,22.6,29.99,NW,315,7.0,9.0,82,0.00,,,0.00,VWS V14.01,2013-02-24 01:01:00,
2013-02-23 20:06:00,27.4,22.6,29.99,NW,312,1.0,9.0,82,0.00,,,0.00,VWS V14.01,2013-02-24 01:06:00,
2013-02-23 20:11:00,27.3,22.5,29.99,NW,307,2.0,9.0,82,0.00,,,0.00,VWS V14.01,2013-02-24 01:11:00,
2013-02-23 20:16:00,27.3,22.2,29.99,WNW,289,5.0,9.0,81,0.00,,,0.00,VWS V14.01,2013-02-24 01:16:00,
2013-02-23 20:21:00,27.2,22.1,29.99,WSW,257,1.0,9.0,81,0.00,,,0.00,VWS V14.01,2013-02-24 01:21:00,
2013-02-23 20:26:00,27.2,22.4,29.99,WNW,289,5.0,9.0,82,0.00,,,0.00,VWS V14.01,2013-02-24 01:26:00,
2013-02-23 20:30:00,27.2,22.4,29.99,WNW,299,3.0,9.0,82,0.00,,,0.00,VWS V14.01,2013-02-24 01:30:00,
2013-02-23 20:31:00,27.1,22.4,29.99,WNW,294,4.0,7.0,82,0.00,,,0.00,VWS V14.01,2013-02-24 01:31:00,
2013-02-23 20:36:00,27.0,22.0,29.99,WNW,294,2.0,8.0,81,0.00,,,0.00,VWS V14.01,2013-02-24 01:36:00,
2013-02-23 20:41:00,27.0,22.2,29.99,WSW,250,3.0,8.0,82,0.00,,,0.00,VWS V14.01,2013-02-24 01:41:00,
2013-02-23 20:46:00,27.0,22.2,29.99,NW,305,4.0,8.0,82,0.00,,,0.00,VWS V14.01,2013-02-24 01:46:00,
2013-02-23 20:51:00,27.0,22.2,29.99,NW,318,3.0,8.0,82,0.00,,,0.00,VWS V14.01,2013-02-24 01:51:00,
2013-02-23 20:56:00,26.9,22.1,29.99,WNW,301,7.0,9.0,82,0.00,,,0.00,VWS V14.01,2013-02-24 01:56:00,
2013-02-23 21:00:00,26.9,22.1,29.99,NNW,330,6.0,9.0,82,0.00,,,0.00,VWS V14.01,2013-02-24 02:00:00,
2013-02-23 21:01:00,26.9,22.1,29.99,NW,306,5.0,12.0,82,0.00,,,0.00,VWS V14.01,2013-02-24 02:01:00,
2013-02-23 21:06:00,26.7,21.7,29.99,WNW,284,2.0,8.0,81,0.00,,,0.00,VWS V14.01,2013-02-24 02:06:00,
2013-02-23 21:11:00,26.7,22.0,29.99,NW,309,3.0,8.0,82,0.00,,,0.00,VWS V14.01,2013-02-24 02:11:00,
2013-02-23 21:16:00,26.7,22.0,29.99,WNW,297,3.0,8.0,82,0.00,,,0.00,VWS V14.01,2013-02-24 02:16:00,
2013-02-23 21:21:00,26.7,22.0,29.99,NW,307,4.0,10.0,82,0.00,,,0.00,VWS V14.01,2013-02-24 02:21:00,
2013-02-23 21:26:00,26.7,22.0,29.99,SW,226,0.0,10.0,82,0.00,,,0.00,VWS V14.01,2013-02-24 02:26:00,
2013-02-23 21:30:00,26.7,22.0,29.99,WNW,287,3.0,10.0,82,0.00,,,0.00,VWS V14.01,2013-02-24 02:30:00,
2013-02-23 21:31:00,26.7,22.0,29.99,WNW,300,4.0,8.0,82,0.00,,,0.00,VWS V14.01,2013-02-24 02:31:00,
2013-02-23 21:36:00,26.7,22.0,29.99,West,280,7.0,8.0,82,0.00,,,0.00,VWS V14.01,2013-02-24 02:36:00,
2013-02-23 21:41:00,26.6,21.9,29.99,WNW,297,5.0,9.0,82,0.00,,,0.00,VWS V14.01,2013-02-24 02:41:00,
2013-02-23 21:46:00,26.6,21.9,29.99,WNW,288,2.0,6.0,82,0.00,,,0.00,VWS V14.01,2013-02-24 02:46:00,
2013-02-23 21:51:00,26.6,22.1,29.99,NW,307,1.0,7.0,83,0.00,,,0.00,VWS V14.01,2013-02-24 02:51:00,
2013-02-23 21:56:00,26.7,22.2,29.99,WNW,294,3.0,8.0,83,0.00,,,0.00,VWS V14.01,2013-02-24 02:56:00,
2013-02-23 22:00:00,26.7,22.2,30.00,NW,309,3.0,8.0,83,0.00,,,0.00,VWS V14.01,2013-02-24 03:00:00,
2013-02-23 22:01:00,26.7,22.2,30.00,NW,317,2.0,6.0,83,0.00,,,0.00,VWS V14.01,2013-02-24 03:01:00,
2013-02-23 22:06:00,26.7,22.2,30.00,NW,323,1.0,6.0,83,0.00,,,0.00,VWS V14.01,2013-02-24 03:06:00,
2013-02-23 22:11:00,26.7,22.2,30.00,WSW,241,4.0,6.0,83,0.00,,,0.00,VWS V14.01,2013-02-24 03:11:00,
2013-02-23 22:16:00,26.7,22.2,30.00,NW,304,5.0,6.0,83,0.00,,,0.00,VWS V14.01,2013-02-24 03:16:00,
2013-02-23 22:21:00,26.7,22.2,30.00,WNW,283,8.0,9.0,83,0.00,,,0.00,VWS V14.01,2013-02-24 03:21:00,
2013-02-23 22:26:00,26.6,21.9,29.99,NW,308,6.0,9.0,82,0.00,,,0.00,VWS V14.01,2013-02-24 03:26:00,
2013-02-23 22:30:00,26.5,21.8,29.99,WNW,294,3.0,9.0,82,0.00,,,0.00,VWS V14.01,2013-02-24 03:30:00,
2013-02-23 22:31:00,26.5,22.0,29.99,West,267,1.0,3.0,83,0.00,,,0.00,VWS V14.01,2013-02-24 03:31:00,
2013-02-23 22:36:00,26.5,22.0,29.99,West,263,3.0,7.0,83,0.00,,,0.00,VWS V14.01,2013-02-24 03:36:00,
2013-02-23 22:41:00,26.6,22.1,29.99,West,272,5.0,7.0,83,0.00,,,0.00,VWS V14.01,2013-02-24 03:41:00,
2013-02-23 22:46:00,26.5,21.8,29.99,NNW,333,2.0,7.0,82,0.00,,,0.00,VWS V14.01,2013-02-24 03:46:00,
2013-02-23 22:51:00,26.5,21.8,29.99,WNW,297,3.0,7.0,82,0.00,,,0.00,VWS V14.01,2013-02-24 03:51:00,
2013-02-23 22:56:00,26.5,21.8,29.99,NW,306,3.0,7.0,82,0.00,,,0.00,VWS V14.01,2013-02-24 03:56:00,
2013-02-23 23:00:00,26.5,21.8,29.99,NW,307,3.0,7.0,82,0.00,,,0.00,VWS V14.01,2013-02-24 04:00:00,
2013-02-23 23:01:00,26.5,21.8,30.00,NW,314,3.0,6.0,82,0.00,,,0.00,VWS V14.01,2013-02-24 04:01:00,
2013-02-23 23:06:00,26.4,21.7,29.99,WNW,294,1.0,6.0,82,0.00,,,0.00,VWS V14.01,2013-02-24 04:06:00,
2013-02-23 23:11:00,26.4,21.7,29.99,NW,305,3.0,6.0,82,0.00,,,0.00,VWS V14.01,2013-02-24 04:11:00,
2013-02-23 23:16:00,26.4,21.7,29.99,NNW,329,1.0,8.0,82,0.00,,,0.00,VWS V14.01,2013-02-24 04:16:00,
2013-02-23 23:21:00,26.3,21.3,29.99,WNW,301,6.0,8.0,81,0.00,,,0.00,VWS V14.01,2013-02-24 04:21:00,
2013-02-23 23:26:00,26.3,21.3,29.99,NW,309,2.0,2.0,81,0.00,,,0.00,VWS V14.01,2013-02-24 04:26:00,
2013-02-23 23:30:00,26.3,21.3,30.00,NW,320,0.0,2.0,81,0.00,,,0.00,VWS V14.01,2013-02-24 04:30:00,
2013-02-23 23:31:00,26.3,21.3,30.00,WNW,294,5.0,6.0,81,0.00,,,0.00,VWS V14.01,2013-02-24 04:31:00,
2013-02-23 23:36:00,26.4,21.7,30.00,WNW,295,1.0,6.0,82,0.00,,,0.00,VWS V14.01,2013-02-24 04:36:00,
2013-02-23 23:41:00,26.4,21.4,29.99,NW,314,3.0,6.0,81,0.00,,,0.00,VWS V14.01,2013-02-24 04:41:00,
2013-02-23 23:46:00,26.4,21.4,29.99,WNW,288,4.0,6.0,81,0.00,,,0.00,VWS V14.01,2013-02-24 04:46:00,
2013-02-23 23:51:00,26.3,21.3,29.99,WNW,297,4.0,6.0,81,0.00,,,0.00,VWS V14.01,2013-02-24 04:51:00,
2013-02-23 23:56:00,26.3,21.3,30.00,WNW,293,5.0,6.0,81,0.00,,,0.00,VWS V14.01,2013-02-24 04:56:00,